Flag for Czech Republic Weather past 2 weeks in Prague, Czech Republic

48 °F

Light rain. Passing clouds.

Feels Like: 39 °F
Forecast: 44 / 50 °F
Wind: 32 mph from Southwest

Location: Prague Ruzyne Airport

Current Time: Nov 30, 2015 at 4:28:22 AM

Latest Report: Nov 30, 2015 at 4:00 AM

Visibility: N/A

Pressure: 29.80 "Hg

Humidity: 76%

Dew point: 41 °F

Location of PragueLocation

Historic Weather in Prague — Graph


Prague temperature yesterday

Maximum temperature yesterday: 46 °F (at 10:30 PM)
Minimum temperature yesterday: 34 °F (at 12:00 AM)
Average temperature yesterday: 39 °F

Past Weeks' High & Low Weather Summary

High59 °F (Nov 16, 1:30 PM)100% (Nov 22, 6:30 AM)30.24 "Hg (Nov 22, 6:30 AM)
Low27 °F (Nov 24, 2:30 AM)44% (Nov 16, 2:00 PM)29.39 "Hg (Nov 21, 11:30 AM)
Average40 °F82%29.85 "Hg
* Reported Nov 15 3:00 AM — Nov 30 3:00 AM, Prague, Weather by CustomWeather, © 2015

Note: Actual official high and low records may vary slightly from our data, if they occured in-between our weather recording intervals... More about our weather records


Prague weather history for previous 24 hours

Time TempWeatherWind HumidityBarometerVisibility
3:00 AM
Mon, Nov 30
48 °FPassing clouds.39 mph76%29.80 "HgN/A
2:00 AM48 °FPassing clouds.39 mph76%29.77 "HgN/A
1:30 AM48 °FPassing clouds.40 mph76%29.80 "HgN/A
1:00 AM46 °FPassing clouds.39 mph76%29.80 "HgN/A
12:00 AM46 °FPartly cloudy.33 mph82%29.80 "HgN/A
11:30 PM
Sun, Nov 29
46 °FPassing clouds.38 mph76%29.80 "HgN/A
11:00 PM46 °FPassing clouds.33 mph76%29.80 "HgN/A
10:30 PM46 °FPassing clouds.25 mph76%29.83 "HgN/A
10:00 PM45 °FPartly cloudy.29 mph81%29.86 "HgN/A
9:30 PM45 °FPassing clouds.29 mph81%29.86 "HgN/A
9:00 PM45 °FPassing clouds.29 mph81%29.86 "HgN/A
8:30 PM43 °FPassing clouds.26 mph87%29.86 "HgN/A
8:00 PM43 °FPassing clouds.28 mph87%29.86 "HgN/A
7:30 PM43 °FPassing clouds.25 mph87%29.86 "HgN/A
7:00 PM43 °FLight rain. Passing clouds.23 mph87%29.89 "HgN/A
6:30 PM41 °FPassing clouds.25 mph87%29.89 "HgN/A
6:00 PM41 °FPassing clouds.21 mph81%29.89 "HgN/A
5:30 PM39 °FPassing clouds.20 mph87%29.92 "HgN/A
5:00 PM39 °FPassing clouds.25 mph87%29.89 "HgN/A
4:30 PM39 °FLight rain. Passing clouds.26 mph87%29.89 "HgN/A
4:00 PM39 °FLight rain. Passing clouds.28 mph87%29.89 "HgN/A
3:30 PM39 °FLight rain. More clouds than sun.28 mph87%29.89 "HgN/A
3:00 PM39 °FLight rain. Partly sunny.25 mph87%29.89 "HgN/A
2:30 PM39 °FLight rain. Scattered clouds.25 mph87%29.92 "HgN/A
2:00 PM39 °FLight rain. Overcast.26 mph81%29.92 "HgN/A
1:30 PM39 °FLight rain. Overcast.25 mph81%29.92 "HgN/A
1:00 PM39 °FLight rain. Partly sunny.25 mph81%29.92 "HgN/A
12:30 PM39 °FScattered clouds.26 mph75%29.92 "HgN/A
12:00 PM39 °FScattered clouds.25 mph75%29.92 "HgN/A
11:30 AM37 °FLight rain. More clouds than sun.24 mph81%29.92 "HgN/A
10:30 AM37 °FScattered clouds.29 mph81%29.92 "HgN/A
10:00 AM37 °FScattered clouds.29 mph81%29.92 "HgN/A
9:30 AM37 °FPassing clouds.26 mph81%29.92 "HgN/A
9:00 AM37 °FPassing clouds.25 mph75%29.92 "HgN/A
7:30 AM36 °FClear.17 mph75%29.92 "Hg10 mi
6:00 AM36 °FClear.13 mph75%29.95 "Hg10 mi
5:00 AM36 °FClear.18 mph75%29.95 "Hg10 mi
4:30 AM36 °FClear.17 mph81%29.95 "Hg10 mi
4:00 AM36 °FClear.16 mph81%29.95 "Hg10 mi
Weather by CustomWeather, © 2015

See weather overviewHow to use our weather pages